Weather Roundup
Issued by NWS Corpus Christi, TX

Home | Current Version | Previous Version | Text Only | Print | Product List | Glossary On
Versions: 1 2 3 4 5 6 7 8 9 10 11 12 13 14 15 16 17 18 19 20 21 22 23 24 25 26 27 28 29 30 31 32 33 34 35 36 37 38 39 40 41 42 43 44 45 46 47 48 49 50
000
ASUS44 KCRP 171510
HRRCRP

SOUTH TEXAS REGIONAL WEATHER ROUNDUP
NATIONAL WEATHER SERVICE CORPUS CHRISTI TX
900 AM CST SUN DEC 17 2017


TXZ229>244-171600-
...CORPUS CHRISTI AREA OBSERVATIONS...

CITY           SKY/WX    TMP DP  RH WIND       PRES   REMARKS
CORPUS CHRISTI CLOUDY    50  50 100 N9        30.09R FOG
NAS CORPUS CHR CLOUDY    53  51  93 NE10      30.09R
ROCKPORT       CLOUDY    50  50 100 NE8       30.09R FOG
KINGSVILLE ARP CLOUDY    51  51 100 N3        30.12S
KINGSVILLE NAS CLOUDY    51  51 100 N5        30.12R FOG
ALICE          CLOUDY    50  48  93 N3        30.11R FOG
$$

...VICTORIA AREA OBSERVATIONS...

CITY           SKY/WX    TMP DP  RH WIND       PRES   REMARKS
PORT LAVACA    CLOUDY    50  49  96 NE5       30.11R FOG
VICTORIA       CLOUDY    50  48  93 CALM      30.11R FOG
BEEVILLE       CLOUDY    48  48 100 NE5       30.10R FOG
PLEASANTON     CLOUDY    48  48 100 CALM      30.13R FOG
SAN ANTONIO    CLOUDY    47  46  97 S5        30.11R FOG
$$

...LAREDO AREA OBSERVATIONS...

CITY           SKY/WX    TMP DP  RH WIND       PRES   REMARKS
LAREDO         CLOUDY    49  47  93 MISG      30.13R
COTULLA        CLOUDY    49  47  93 NW3       30.13R FOG
DEL RIO        CLOUDY    46  44  93 CALM      30.08R
MCALLEN        FOG       52  50  93 N7        30.10R VSB 3/4
HEBBRONVILLE   CLOUDY    47  47  99 CALM      30.11R
$$

...OTHER TEXAS OBSERVATIONS...

CITY           SKY/WX    TMP DP  RH WIND       PRES   REMARKS
BROWNSVILLE    CLOUDY    53  52  96 CALM      30.10R
HOUSTON        FOG       49  49 100 CALM      30.11R VSB 1/8
COL. STATION   FOG       43  43 100 CALM      30.12R VSB<1/4
AUSTIN         FOG       47  47 100 S5        30.10R VSB 1
WACO           CLOUDY    46  45  96 NW3       30.08S FOG
FORT WORTH     CLOUDY    47  45  93 S8        30.06S FOG
WICHITA FALLS  CLOUDY    45  41  86 SE12      30.02S
LUBBOCK        CLOUDY    34  28  79 N20       29.97R WCI  23
EL PASO        PTSUNNY   43  32  65 SW3       29.99R
$$

...MARINE OBSERVATIONS...

STATION/POSITION TIME  SKY/WX   TEMP    WIND        PRES    VSBY  WAVE   SWELL
                                AIR SEA DIR/SP/G                  HT/PER HT/PER
                 (UTC)          (F)     (DEG/KT/KT) (MB)    (MI)  (FT/S) (FT/S)
PORT ARANSAS     NOT AVBL
BUOY 90 E PORT A 1350            63 71  340/ 10/ 14 1018.1          5/ 7   3/ 7
BUOY 200 E PT IS 1350            74 76  310/ 10/ 12 1017.7          5/ 7   5/ 7
BUOY 15 E GALVES 1350            56 61  340/  8/  8 1018.6          4/ 7   3/ 7
$$




USA.gov is the U.S. government's official web portal to all federal, state and local government web resources and services.